| time (UTC) | temp F | wind direction | speed knots | gust knots | rain 1hr in | rain 24hr in | rain mn in | humidity % | barometer mb |
| 20260503185403 | 52 | 128 | 0.0 | 2.6 | 0.13 | 0.37 | 0.37 | 93 | 1013.4 |
| 20260503184503 | 52 | 169 | 1.7 | 3.5 | 0.13 | 0.37 | 0.37 | 91 | 1013.5 |
| 20260503182704 | 56 | 167 | 0.9 | 2.6 | 0.02 | 0.25 | 0.25 | 89 | 1013.4 |
| 20260503180903 | 56 | 158 | 0.9 | 2.6 | 0.02 | 0.27 | 0.25 | 88 | 1013.2 |
| 20260503180217 | 57 | 113 | 0.0 | 1.7 | 0.01 | 0.26 | 0.24 | 88 | 1013.1 |
| 20260503175403 | 56 | 135 | 0.9 | 2.6 | 0.01 | 0.26 | 0.24 | 88 | 1013.1 |
| 20260503174503 | 57 | 140 | 1.7 | 5.2 | 0.01 | 0.26 | 0.24 | 87 | 1013.0 |
| 20260503173603 | 57 | 133 | 1.7 | 2.6 | 0.00 | 0.25 | 0.23 | 83 | 1013.1 |
| 20260503172703 | 58 | 118 | 0.9 | 2.6 | 0.00 | 0.25 | 0.23 | 85 | 1013.0 |
| 20260503171803 | 58 | 99 | 0.9 | 6.1 | 0.00 | 0.25 | 0.23 | 87 | 1012.9 |
| 20260503171117 | 57 | 78 | 0.9 | 6.1 | 0.00 | 0.25 | 0.23 | 87 | 1013.1 |
| 20260503150903 | 59 | 190 | 4.3 | 7.8 | 0.00 | 0.32 | 0.13 | 74 | 1013.3 |
| 20260503131118 | 60 | 253 | 3.5 | 5.2 | 0.00 | 0.33 | 0.13 | 72 | 1014.0 |
| 20260503072703 | 52 | 0 | 0.0 | 0.0 | 0.00 | 0.65 | 0.00 | 99 | 1015.5 |
| 20260503071803 | 52 | 0 | 0.0 | 0.0 | 0.00 | 0.65 | 0.00 | 99 | 1015.5 |
| 20260503060217 | 47 | 0 | 0.0 | 0.0 | 0.00 | 0.65 | 0.00 | 99 | 1015.8 |
| 20260503054504 | 48 | 0 | 0.0 | 0.0 | 0.00 | 0.65 | 0.00 | 99 | 1015.8 |
| 20260503053603 | 47 | 50 | 0.0 | 1.7 | 0.00 | 0.65 | 0.00 | 99 | 1015.8 |
| 20260503051803 | 47 | 0 | 0.0 | 0.0 | 0.00 | 0.65 | 0.00 | 99 | 1015.8 |
| 20260503050903 | 48 | 30 | 0.0 | 0.9 | 0.00 | 0.65 | 0.00 | 99 | 1015.8 |
| 20260503050004 | 48 | 0 | 0.0 | 0.0 | 0.00 | 0.65 | 0.00 | 99 | 1015.6 |
| 20260503045403 | 48 | 0 | 0.0 | 0.0 | 0.00 | 0.65 | 0.00 | 99 | 1015.6 |
| 20260503044504 | 48 | 0 | 0.0 | 0.0 | 0.00 | 0.65 | 0.00 | 99 | 1015.6 |
| 20260503042703 | 49 | 0 | 0.0 | 0.0 | 0.00 | 0.65 | 0.00 | 99 | 1015.9 |
| 20260503041803 | 49 | 0 | 0.0 | 0.0 | 0.00 | 0.65 | 0.00 | 99 | 1015.9 |
| 20260503041117 | 49 | 0 | 0.0 | 0.0 | 0.00 | 0.65 | 0.00 | 99 | 1015.9 |
| 20260503040003 | 49 | 0 | 0.0 | 0.0 | 0.00 | 0.65 | 0.00 | 99 | 1015.6 |
| 20260503035618 | 49 | 0 | 0.0 | 0.0 | 0.00 | 0.65 | 0.00 | 99 | 1015.9 |
| 20260503034503 | 49 | 0 | 0.0 | 0.0 | 0.00 | 0.65 | 0.00 | 99 | 1015.8 |
| 20260503032918 | 49 | 0 | 0.0 | 0.0 | 0.00 | 0.65 | 0.00 | 99 | 1016.0 |
| 20260503031803 | 49 | 0 | 0.0 | 0.0 | 0.00 | 0.65 | 0.00 | 99 | 1016.0 |
| 20260503030903 | 49 | 0 | 0.0 | 0.0 | 0.00 | 0.65 | 0.00 | 99 | 1015.9 |
| 20260503030003 | 48 | 0 | 0.0 | 0.0 | 0.00 | 0.65 | 0.00 | 99 | 1016.0 |
| 20260503025403 | 49 | 0 | 0.0 | 0.0 | 0.00 | 0.65 | 0.00 | 99 | 1016.0 |
| 20260503023603 | 48 | 0 | 0.0 | 0.0 | 0.00 | 0.65 | 0.00 | 99 | 1015.8 |
| 20260503022703 | 48 | 95 | 0.0 | 0.9 | 0.00 | 0.65 | 0.00 | 99 | 1016.1 |
| 20260503021803 | 49 | 61 | 0.0 | 1.7 | 0.00 | 0.65 | 0.00 | 99 | 1016.1 |
| 20260503020903 | 49 | 48 | 0.0 | 1.7 | 0.00 | 0.65 | 0.00 | 99 | 1016.1 |
| 20260503020003 | 49 | 53 | 0.0 | 1.7 | 0.00 | 0.65 | 0.00 | 99 | 1016.3 |
| 20260503013603 | 50 | 0 | 0.0 | 0.0 | 0.00 | 0.65 | 0.00 | 99 | 1016.2 |
| 20260503012703 | 49 | 0 | 0.0 | 0.0 | 0.00 | 0.65 | 0.00 | 99 | 1016.5 |
| 20260503011803 | 49 | 37 | 0.0 | 1.7 | 0.00 | 0.65 | 0.00 | 99 | 1016.3 |
| 20260503010903 | 49 | 345 | 0.0 | 0.9 | 0.00 | 0.65 | 0.00 | 99 | 1016.6 |
| 20260503010003 | 49 | 43 | 0.0 | 1.7 | 0.00 | 0.65 | 0.00 | 99 | 1016.5 |
| 20260503004503 | 49 | 0 | 0.0 | 0.0 | 0.00 | 0.65 | 0.00 | 99 | 1016.7 |
| 20260503003603 | 49 | 55 | 0.0 | 1.7 | 0.00 | 0.65 | 0.00 | 99 | 1016.8 |
| 20260503002703 | 49 | 268 | 0.0 | 1.7 | 0.00 | 0.65 | 0.00 | 99 | 1016.9 |
| 20260503002018 | 49 | 42 | 0.0 | 0.9 | 0.00 | 0.65 | 0.00 | 99 | 1016.7 |
| 20260503001118 | 49 | 0 | 0.0 | 0.0 | 0.00 | 0.65 | 0.00 | 99 | 1016.9 |
| 20260502235403 | 50 | 155 | 0.0 | 2.6 | 0.00 | 0.65 | 0.00 | 99 | 1017.0 |
| 20260502234503 | 49 | 342 | 0.0 | 1.7 | 0.00 | 0.65 | 0.00 | 99 | 1016.9 |
| 20260502233603 | 49 | 0 | 0.0 | 0.0 | 0.00 | 0.65 | 0.00 | 99 | 1017.0 |
| 20260502232703 | 49 | 0 | 0.0 | 0.0 | 0.00 | 0.65 | 0.00 | 99 | 1017.1 |
| 20260502231803 | 50 | 0 | 0.0 | 0.0 | 0.00 | 0.65 | 0.00 | 99 | 1017.0 |
| 20260502230903 | 49 | 0 | 0.0 | 0.0 | 0.00 | 0.65 | 0.00 | 99 | 1016.9 |
| 20260502230003 | 50 | 66 | 0.0 | 0.9 | 0.00 | 0.65 | 0.00 | 99 | 1017.0 |
| 20260502225403 | 50 | 58 | 0.0 | 0.9 | 0.00 | 0.65 | 0.00 | 99 | 1017.1 |
| 20260502224503 | 50 | 58 | 0.0 | 0.9 | 0.00 | 0.65 | 0.00 | 99 | 1016.9 |
| 20260502223603 | 49 | 0 | 0.0 | 0.0 | 0.00 | 0.65 | 0.00 | 99 | 1016.8 |
| 20260502221803 | 50 | 0 | 0.0 | 0.0 | 0.00 | 0.65 | 0.00 | 99 | 1017.0 |
| 20260502220903 | 50 | 40 | 0.0 | 2.6 | 0.00 | 0.65 | 0.00 | 99 | 1017.0 |
| 20260502220003 | 50 | 45 | 1.7 | 2.6 | 0.00 | 0.65 | 0.00 | 99 | 1016.7 |
| 20260502215403 | 51 | 49 | 0.9 | 2.6 | 0.00 | 0.65 | 0.65 | 99 | 1016.9 |
| 20260502214503 | 51 | 61 | 0.0 | 1.7 | 0.00 | 0.65 | 0.65 | 99 | 1017.1 |
| 20260502213603 | 51 | 0 | 0.0 | 0.0 | 0.00 | 0.65 | 0.65 | 99 | 1016.9 |
| 20260502211116 | 52 | 65 | 0.0 | 1.7 | 0.00 | 0.65 | 0.65 | 99 | 1017.2 |
| 20260502210003 | 52 | 75 | 0.0 | 1.7 | 0.00 | 0.65 | 0.65 | 99 | 1017.0 |
| 20260502205403 | 52 | 61 | 0.9 | 2.6 | 0.00 | 0.65 | 0.65 | 99 | 1016.8 |
| 20260502204717 | 52 | 55 | 0.9 | 2.6 | 0.00 | 0.65 | 0.65 | 99 | 1017.1 |
| 20260502203818 | 52 | 59 | 0.0 | 1.7 | 0.00 | 0.65 | 0.65 | 99 | 1017.4 |
| 20260502201803 | 52 | 0 | 0.0 | 0.0 | 0.00 | 0.65 | 0.65 | 99 | 1016.8 |
| 20260502200903 | 52 | 0 | 0.0 | 0.0 | 0.00 | 0.65 | 0.65 | 99 | 1016.5 |
| 20260502200217 | 52 | 52 | 0.0 | 1.7 | 0.00 | 0.65 | 0.65 | 99 | 1016.7 |
| 20260502195403 | 52 | 63 | 0.0 | 0.9 | 0.00 | 0.65 | 0.65 | 99 | 1016.7 |
| 20260502194716 | 52 | 59 | 0.0 | 0.9 | 0.00 | 0.65 | 0.65 | 99 | 1016.6 |
| 20260502192917 | 53 | 54 | 0.9 | 1.7 | 0.00 | 0.65 | 0.65 | 99 | 1016.4 |
| 20260502191803 | 53 | 68 | 0.0 | 1.7 | 0.01 | 0.65 | 0.65 | 99 | 1016.5 |
| 20260502190903 | 53 | 52 | 0.9 | 2.6 | 0.02 | 0.65 | 0.65 | 99 | 1016.2 |
| 20260502190004 | 54 | 55 | 0.9 | 1.7 | 0.02 | 0.65 | 0.65 | 99 | 1016.2 |
| 20260502185617 | 54 | 64 | 0.9 | 1.7 | 0.02 | 0.65 | 0.65 | 99 | 1016.5 |